Temp
18 19 19 19 19 19 19 19 20 20 20 21 21 21 22 23 23 23 22 24 23 23 23 23 23 21 21 21 21 17 16 17 22 23 24 23 23 25 25 25 25 25 27 28 27
19 19 19 19 19 19 19 20 20 20 21 21 21 22 22 23 23 23 25 24 23 23 23 22 21 20 19 21 19 18 16 19 21 23 23 23 24 25 26 24 26 25 25 27 27
18 19 19 20 20 20 20 20 20 20 21 21 21 22 22 22 22 24 25 24 24 23 23 22 21 21 20 20 20 20 20 21 23 22 22 23 23 25 25 24 24 25 25 25 26
18 19 19 20 20 20 20 20 20 20 21 21 22 22 22 21 22 26 25 25 24 24 24 23 20 21 19 21 20 21 21 22 22 23 22 23 24 24 23 24 24 23 23 23 22
19 19 20 20 20 20 21 21 21 21 21 21 21 22 22 22 24 26 26 25 25 25 23 22 22 20 20 20 20 21 22 21 20 19 19 21 23 23 23 22 22 21 21 21 19
19 19 20 21 21 21 21 21 21 21 21 21 21 21 21 23 26 26 26 25 25 24 23 22 23 22 20 20 20 21 20 19 20 21 22 23 23 23 23 20 20 20 18 18 18
19 20 20 21 21 22 22 22 22 22 21 21 21 20 20 23 25 26 25 25 25 24 23 24 23 23 20 21 20 20 21 20 23 22 23 22 24 23 20 19 19 19 19 18 18
19 20 20 21 22 22 23 23 23 22 22 21 21 20 20 25 25 26 26 25 25 24 23 24 24 21 21 21 18 20 19 20 22 22 24 23 22 19 18 19 18 18 18 18 17
19 19 20 21 21 23 23 23 23 22 21 20 20 20 23 25 25 26 26 24 25 25 24 23 22 19 19 18 17 17 20 21 21 22 23 22 22 18 17 18 17 16 17 17 17
19 19 20 22 22 23 24 22 22 21 20 20 19 21 24 25 26 26 26 25 24 23 22 20 16 18 15 17 18 20 20 21 20 22 22 21 18 18 17 17 16 16 16 16 16
18 19 21 21 22 23 23 21 18 19 19 22 22 23 22 25 25 26 26 25 23 20 20 19 18 20 20 18 20 20 20 20 20 21 22 21 18 18 18 16 16 16 15 15 16
18 19 20 22 23 23 23 20 21 22 20 21 20 21 22 24 23 24 26 24 22 21 20 19 20 21 21 20 19 19 20 20 20 21 21 20 18 18 18 18 17 16 15 15 16
18 19 21 21 23 22 22 21 21 22 19 21 22 23 24 23 23 23 24 23 22 22 20 20 22 21 21 22 21 21 21 21 20 20 19 20 17 17 18 18 17 17 16 15 15
19 18 21 21 20 20 21 22 23 22 17 23 25 26 25 25 25 24 24 24 22 22 21 21 21 20 20 21 21 21 21 21 20 19 17 18 16 17 17 17 17 16 14 15 15
19 18 20 20 19 19 21 22 22 21 19 24 25 26 22 25 25 23 23 23 22 22 20 20 20 19 19 20 20 20 21 19 19 18 17 18 14 16 16 17 17 16 16 15 15
20 19 20 20 20 21 22 22 22 18 20 24 23 22 23 22 22 22 21 20 21 20 18 19 19 21 20 20 20 19 20 16 14 14 13 17 15 15 16 18 16 15 15 15 14
21 21 22 21 20 21 22 19 17 18 22 22 22 21 21 21 21 20 19 18 18 18 16 17 19 19 19 18 18 17 15 12 14 13 16 16 15 15 17 17 17 15 15 14 13
21 22 22 21 22 22 21 17 20 21 21 22 21 21 20 20 20 20 20 18 19 17 15 16 16 19 19 19 18 18 16 12 12 12 14 14 14 16 17 17 16 15 14 13 13
20 21 21 21 21 21 15 16 18 20 22 21 21 19 19 20 20 19 19 18 20 19 18 16 17 18 20 19 18 18 15 15 11 11 13 13 15 16 17 16 15 14 14 14 13
16 16 19 21 20 20 15 17 20 21 21 20 20 20 18 19 19 19 19 19 20 20 17 18 15 18 18 19 19 18 17 14 11 11 15 14 14 14 16 15 14 13 13 13 12
14 14 20 21 21 14 16 17 20 22 22 20 19 19 19 19 18 19 18 19 18 20 18 17 15 16 17 18 17 16 16 14 13 11 12 12 13 14 16 15 13 12 12 12 12
10 15 20 20 16 11 16 18 21 21 21 21 20 20 19 19 19 19 19 19 19 19 19 16 12 13 16 17 17 19 18 15 14 15 12 13 14 16 15 14 12 12 12 13 12
7 8 19 19 16 15 16 20 21 20 21 20 20 20 19 19 18 18 19 19 18 18 18 16 13 13 15 16 17 17 17 17 15 13 13 14 13 15 14 14 13 12 12 13 12
8 12 12 10 11 16 16 19 20 20 20 20 19 19 18 18 18 18 18 19 18 18 18 15 12 13 11 15 15 15 16 16 15 14 14 14 14 15 14 13 13 12 13 12 11
8 11 10 12 13 14 15 17 19 20 20 19 18 19 18 17 17 17 17 17 17 18 15 14 15 13 14 14 15 15 15 15 14 14 14 15 13 14 14 13 12 12 11 11 12
9 10 8 10 10 14 14 16 17 17 18 19 18 17 17 16 16 16 16 16 15 16 16 12 14 14 14 16 16 16 16 17 17 16 15 14 14 14 14 12 12 13 12 12 11
8 8 9 10 11 13 13 15 16 15 19 18 17 16 16 16 15 15 14 14 16 14 13 13 12 12 14 15 15 15 16 17 17 16 15 14 16 14 13 13 13 12 11 11 10
Height
800 798 795 793 791 789 787 786 784 782 780 779 777 775 772 768 766 765 766 766 765 764 763 761 760 759 761 765 766 772 803 814 794 791 783 776 778 765 763 764 760 757 756 754 755
801 798 796 793 791 789 787 785 783 782 780 778 777 774 771 768 767 766 766 765 765 764 763 761 761 760 768 769 773 784 805 799 785 779 781 776 774 770 768 769 763 759 754 752 753
802 798 796 793 791 788 786 785 783 781 779 778 776 774 771 769 770 767 766 766 765 764 764 763 762 763 773 773 777 783 794 785 778 776 775 775 774 766 769 772 765 761 755 752 751
802 799 796 793 790 787 785 783 781 780 778 777 776 773 770 770 789 767 767 766 765 765 764 764 765 771 781 781 778 784 779 778 776 771 774 774 766 768 767 761 755 755 753 752 753
802 798 795 792 789 786 783 781 779 778 777 776 775 773 771 772 771 767 766 766 765 765 765 765 769 775 783 781 780 781 778 777 774 774 776 770 768 767 764 762 756 755 756 756 755
802 798 794 790 787 784 781 779 777 776 776 775 775 774 773 778 766 766 765 765 765 765 765 765 767 769 778 780 783 777 779 778 770 769 766 766 765 766 766 764 763 761 764 764 763
801 797 793 788 784 781 779 776 775 774 774 774 774 774 775 773 766 765 765 764 764 765 765 764 765 769 776 780 777 778 781 777 769 769 767 766 770 774 773 768 769 769 769 769 768
800 796 791 786 782 779 776 774 771 771 772 773 773 774 776 766 765 764 764 764 763 763 764 764 765 770 774 775 783 785 789 797 774 772 765 769 789 783 776 770 776 774 772 771 769
799 794 789 784 780 776 773 771 770 769 771 772 774 774 775 766 764 763 763 764 763 763 763 765 767 778 781 792 800 797 800 794 787 773 771 773 783 786 779 775 778 777 775 772 768
797 792 786 781 777 774 771 770 770 771 772 772 774 778 768 768 764 763 763 763 763 763 766 770 781 790 798 802 815 801 800 794 795 778 775 779 791 786 783 780 782 780 776 773 770
795 789 783 778 774 771 771 771 775 776 773 772 772 772 769 765 763 762 762 762 765 771 785 782 794 797 788 791 787 790 796 799 790 778 778 780 790 787 783 784 783 782 779 776 772
793 786 780 775 772 771 771 773 777 779 782 768 769 769 766 766 770 763 763 769 773 785 781 792 795 780 779 781 789 791 794 797 789 778 781 781 790 787 784 782 782 782 780 776 770
791 784 777 772 770 771 772 775 775 775 786 774 767 766 763 765 770 768 764 769 777 783 788 795 784 776 778 777 784 786 792 790 792 783 782 782 796 791 784 780 779 779 779 776 774
790 782 774 771 773 772 774 774 773 774 802 782 771 765 763 762 771 764 765 770 777 786 785 789 781 783 781 782 783 791 780 783 786 794 807 788 815 792 786 784 780 780 778 774 770
788 781 775 772 774 774 775 773 773 775 823 777 770 762 764 769 768 772 768 769 783 785 790 795 790 791 791 791 782 791 780 787 787 796 799 797 818 796 787 785 783 779 775 771 768
787 780 776 774 774 776 773 772 774 805 816 784 775 779 777 777 777 775 776 772 778 788 793 794 787 787 789 784 783 781 783 795 804 811 828 800 811 801 792 783 784 780 777 773 768
786 780 776 776 777 775 772 774 808 818 784 794 789 785 786 791 789 788 793 798 804 810 817 806 796 790 787 793 787 792 808 839 825 832 817 802 812 799 783 779 779 780 776 771 767
785 779 777 776 776 774 773 792 805 793 793 783 788 787 797 793 797 796 798 808 800 807 823 822 822 799 791 793 799 799 808 840 852 846 827 812 816 792 781 777 778 777 775 770 765
784 778 776 776 775 774 784 812 807 794 785 789 791 802 805 797 795 800 802 806 799 799 813 823 817 797 790 790 794 799 816 812 839 844 835 821 802 785 780 781 779 776 771 768 763
786 780 777 775 774 774 795 803 793 782 783 788 800 798 810 805 804 804 805 799 798 796 800 809 826 802 797 789 791 796 802 822 839 852 827 817 814 808 787 787 781 778 774 767 761
789 786 777 774 775 785 802 801 787 778 779 790 798 802 802 805 805 805 807 802 798 797 799 807 819 812 803 800 806 809 812 820 828 839 840 836 816 790 784 784 784 779 772 765 758
797 795 775 773 791 805 798 790 779 781 780 784 789 793 798 800 803 803 803 799 794 795 803 808 826 828 813 800 797 795 801 812 824 823 832 828 810 782 782 782 781 776 767 760 755
808 801 776 773 797 800 793 784 780 783 783 785 790 788 791 798 805 801 800 795 796 798 800 807 825 834 820 811 801 802 801 803 813 823 827 820 813 779 781 779 774 772 763 756 752
809 804 789 786 796 794 795 788 786 778 781 783 788 789 794 799 798 802 801 795 794 795 795 802 824 826 845 820 812 813 805 803 810 819 815 810 799 781 781 780 773 767 759 753 750
810 809 811 805 800 801 797 793 788 787 782 783 791 790 796 803 803 804 801 800 795 793 801 806 815 819 815 811 810 807 803 800 809 804 810 795 799 784 780 777 772 765 758 752 746
814 812 811 809 807 799 800 797 795 791 787 788 793 794 795 803 801 804 802 804 804 798 800 810 814 812 811 799 800 801 794 791 790 790 795 791 788 775 773 772 768 760 755 750 746
813 813 811 808 806 804 802 796 794 795 783 783 787 794 797 796 791 791 792 794 792 800 807 811 814 819 813 803 800 803 792 788 786 785 787 792 778 773 773 770 764 758 755 751 745
Wind_Speed
17 15 14 13 12 11 10 9 9 9 10 12 13 16 20 19 10 5 2 1 2 7 9 8 8 4 4 3 3 3 5 2 3 4 3 4 5 3 2 2 4 4 2 3 4
21 18 15 14 13 12 12 11 9 8 9 9 12 16 22 12 5 4 1 2 4 7 9 10 6 5 4 3 4 5 4 7 3 1 1 4 1 3 2 5 2 4 5 6 5
24 22 18 15 13 13 12 12 11 10 8 9 11 14 17 6 3 3 1 1 4 8 7 5 4 3 6 2 4 1 3 3 2 4 1 3 4 2 2 5 7 7 6 5 4
26 24 21 18 14 12 12 11 11 11 9 9 11 14 13 3 3 1 1 3 5 7 6 5 6 4 4 2 2 2 2 3 4 3 2 4 2 3 5 9 2 7 6 5 7
27 25 23 20 16 13 13 11 10 10 9 7 9 13 5 3 3 4 5 6 6 5 5 2 4 3 2 2 4 1 1 4 7 9 6 6 5 6 5 9 9 8 8 10 10
28 27 25 22 18 15 14 11 9 8 7 5 7 10 2 1 2 4 5 9 8 6 2 2 2 3 3 1 2 3 3 7 7 5 3 2 3 3 7 8 13 15 13 11 11
31 30 29 24 21 17 15 11 8 6 5 4 5 5 3 6 3 7 6 7 10 9 3 4 4 3 4 3 1 2 5 5 1 4 3 1 2 7 7 8 13 12 8 8 7
33 32 31 26 22 19 15 10 11 6 3 2 2 2 4 2 8 10 8 7 8 11 10 10 3 5 2 1 6 3 4 4 4 6 3 3 5 9 7 13 9 9 9 8 8
35 34 32 27 23 20 14 10 7 1 3 1 2 2 5 6 4 6 9 4 5 3 2 7 3 4 5 3 5 6 0 1 7 3 2 5 1 6 7 9 8 7 7 8 10
36 36 33 28 22 18 9 4 7 5 6 5 3 2 3 1 5 3 3 5 3 2 3 6 5 3 4 4 2 2 2 3 4 3 4 3 2 4 6 8 6 7 8 10 10
38 38 34 29 21 12 3 1 5 4 2 4 3 2 4 7 7 2 1 2 3 8 3 4 5 1 4 7 4 4 3 3 4 4 3 2 5 4 1 5 8 8 8 8 9
40 39 36 27 15 3 5 4 2 2 5 2 3 4 8 2 3 3 2 2 4 3 2 6 1 4 5 2 4 3 2 4 5 4 2 4 5 4 2 1 1 4 7 7 11
43 40 33 22 3 4 7 5 9 2 2 6 3 3 3 7 4 4 3 2 3 3 4 3 5 5 4 2 3 2 2 3 5 3 3 1 1 4 3 2 3 2 4 6 8
44 41 26 17 4 3 3 9 5 4 4 4 2 1 3 2 2 2 2 3 4 3 4 2 5 6 5 3 3 2 2 3 4 4 3 3 4 4 4 5 4 6 6 7 10
44 40 19 12 3 2 5 11 2 2 3 2 1 1 6 2 1 9 7 4 3 2 6 5 5 7 7 5 3 6 4 2 2 1 1 2 3 5 2 3 6 8 10 11 11
43 33 14 6 4 5 12 4 3 5 1 2 3 5 5 7 6 5 6 6 3 4 5 3 4 3 3 4 2 5 1 4 3 3 2 1 4 5 2 1 5 6 8 9 11
41 23 8 3 2 10 9 3 5 4 3 4 3 4 4 5 6 5 5 7 4 5 6 6 4 5 4 6 4 9 6 4 5 4 4 1 2 7 3 2 2 7 11 10 10
38 15 6 5 7 9 3 5 2 1 1 1 3 3 4 5 3 4 2 3 4 4 3 4 6 5 7 1 3 4 3 4 4 2 5 3 4 4 3 1 5 7 9 9 10
35 10 3 6 6 5 5 3 6 3 1 2 3 4 5 5 3 3 3 2 1 2 3 4 5 3 3 2 2 1 4 2 5 2 2 4 6 6 4 6 7 9 11 12 12
24 11 3 9 1 4 4 4 2 2 3 3 2 2 2 3 3 3 3 4 1 2 3 2 2 1 5 3 3 5 5 3 4 2 4 5 5 5 4 7 9 10 12 13 11
8 4 3 4 0 5 3 5 4 1 2 3 3 3 3 2 1 1 2 3 4 2 3 3 3 5 3 0 2 3 3 5 4 3 2 3 6 5 2 6 9 11 12 12 12
7 3 7 2 4 1 2 4 2 3 4 2 3 2 3 3 0 0 2 3 3 1 1 1 4 3 6 5 3 2 3 4 3 2 3 1 6 2 6 8 8 11 12 13 10
3 3 4 3 2 1 4 2 2 3 3 3 3 2 2 4 1 3 2 4 4 4 2 4 1 3 7 5 5 1 2 3 3 2 4 2 5 1 7 9 10 10 12 12 9
2 4 4 4 1 3 3 1 2 3 3 3 3 3 3 1 1 2 1 2 3 1 6 5 3 6 6 7 3 5 4 4 5 2 3 6 8 12 10 9 12 12 13 13 11
2 2 2 3 3 3 1 2 1 1 1 2 2 3 5 3 1 3 2 3 3 4 3 4 3 4 6 9 4 10 12 10 8 5 6 6 6 11 10 8 9 9 10 11 11
2 2 3 2 3 3 3 2 1 5 5 3 4 5 3 6 7 7 5 4 6 1 3 2 2 2 5 3 2 8 7 5 4 4 7 8 10 7 6 7 7 14 11 13 11
4 2 2 2 2 1 2 1 0 2 1 3 4 4 3 6 7 9 8 7 6 8 6 4 5 2 4 3 6 5 6 5 4 5 4 5 9 4 8 9 9 9 12 12 11
Wind_Direction
26 21 19 18 18 17 14 9 6 4 3 1 0 354 349 340 353 10 25 46 19 359 359 21 29 49 98 71 58 127 63 115 203 151 301 321 12 307 312 352 321 338 162 211 122
29 21 14 10 8 6 5 0 352 344 346 354 354 350 348 346 14 1 71 357 335 0 13 23 16 29 53 40 24 73 93 209 215 151 352 284 217 299 334 325 291 313 288 258 291
25 22 15 7 2 359 354 352 350 342 336 341 345 346 350 356 32 304 96 346 340 6 16 39 65 56 58 15 1 133 166 220 238 225 345 251 297 238 268 298 225 259 286 299 296
19 17 13 7 356 349 345 340 335 339 336 333 340 347 345 7 92 304 79 297 328 350 20 15 25 49 64 47 340 141 216 153 271 230 301 232 219 227 204 241 245 260 294 283 295
15 11 8 5 360 350 343 335 326 322 334 335 341 352 358 22 257 345 273 281 313 342 9 50 55 97 47 309 346 134 249 262 263 271 246 297 257 228 280 346 349 340 348 337 356
9 7 2 359 355 350 342 331 322 312 318 326 335 351 25 115 286 316 299 271 283 297 308 164 171 144 99 3 138 299 287 287 281 327 252 246 330 72 20 2 48 55 48 45 44
6 3 359 352 351 349 343 332 320 303 297 314 326 352 70 222 246 302 301 267 272 267 290 267 177 113 130 348 260 308 334 333 313 338 310 55 42 73 346 65 51 42 43 31 24
3 360 357 351 346 348 343 334 315 275 251 300 344 25 243 244 280 283 276 287 276 272 256 263 186 102 61 287 15 50 44 44 303 344 325 92 279 358 18 73 46 32 20 16 2
359 358 354 351 344 341 342 345 3 75 160 133 104 100 280 302 282 313 262 270 303 341 337 104 85 82 29 51 13 10 25 232 325 340 331 42 318 342 7 54 40 15 11 1 357
357 355 351 347 342 336 340 44 61 85 109 79 73 61 305 266 315 284 290 257 24 29 58 44 48 59 37 65 209 263 355 323 287 279 16 3 114 344 1 48 29 1 4 3 357
355 353 348 346 340 338 2 32 17 355 74 194 220 240 273 298 293 278 214 78 34 60 39 6 66 258 254 215 201 139 190 247 268 279 358 263 165 191 340 26 28 6 358 346 341
355 351 347 344 343 56 63 76 112 261 317 266 234 268 262 237 325 303 160 45 53 31 4 24 339 242 279 187 172 183 203 274 282 269 144 277 189 195 218 227 348 333 340 328 331
354 350 347 347 41 74 84 79 341 148 86 302 198 202 223 146 214 277 118 115 63 30 23 141 269 312 293 244 145 190 162 258 247 316 303 50 318 213 235 260 335 333 296 311 317
352 351 352 358 107 39 81 355 344 157 65 293 315 329 111 193 18 84 73 102 19 13 352 285 320 5 25 56 53 339 332 255 269 20 282 18 273 265 236 287 322 321 323 318 332
351 352 356 6 341 80 337 338 111 88 78 255 10 332 344 112 335 359 26 31 19 27 62 285 4 3 26 328 316 239 355 9 326 122 42 347 72 267 315 284 326 339 328 331 329
350 351 0 23 47 1 343 20 108 49 181 348 36 339 52 17 16 356 21 36 58 77 22 302 288 53 315 303 11 293 10 42 52 78 38 136 101 280 218 219 317 298 306 306 313
348 346 1 26 348 347 341 52 45 120 337 330 13 2 80 22 15 39 30 23 50 34 358 338 340 321 24 359 358 40 47 348 357 5 230 147 26 247 250 222 263 305 306 309 311
344 335 327 343 326 343 26 54 139 194 85 326 42 56 78 5 44 4 64 37 31 70 75 46 333 13 325 180 249 358 107 145 219 270 291 317 229 260 246 180 314 296 291 298 315
342 331 328 350 344 5 71 69 193 210 151 49 57 74 8 2 57 64 25 165 167 75 76 46 292 321 293 292 117 112 49 153 104 20 336 277 291 324 19 334 322 318 333 318 309
336 330 340 347 57 48 76 206 206 225 111 70 116 108 127 331 47 45 14 348 76 38 123 152 326 311 289 18 26 90 155 32 14 22 301 292 291 247 302 322 321 318 305 300 294
341 10 354 344 113 50 142 217 220 115 128 125 157 125 147 126 208 40 353 13 20 28 79 120 119 286 323 103 165 1 36 59 116 136 201 295 269 218 238 284 295 292 291 297 298
351 336 349 98 51 59 150 201 246 149 65 75 105 130 144 149 60 150 154 147 14 301 323 64 142 271 248 278 286 278 155 122 122 252 227 255 273 263 249 291 284 285 296 302 299
348 268 334 346 130 309 302 288 217 145 177 143 146 156 153 169 131 200 191 156 50 24 190 181 7 348 349 353 11 356 314 139 106 61 219 201 262 216 302 313 310 296 302 302 302
14 337 324 39 40 112 31 296 314 357 140 115 116 86 108 123 77 209 221 204 317 301 115 106 135 162 191 230 183 291 266 249 188 190 225 233 278 300 304 308 311 307 303 304 307
39 282 193 320 7 5 211 297 307 261 49 113 42 163 155 161 305 248 228 311 323 141 81 118 203 183 245 255 241 261 269 273 195 207 190 259 231 278 285 292 289 284 291 306 311
346 19 354 291 310 300 359 82 0 313 165 224 165 188 168 164 192 218 198 192 228 188 131 8 241 190 288 282 240 267 266 251 208 212 247 266 283 240 282 297 291 302 309 311 317
4 323 119 278 340 119 224 284 133 328 305 188 165 141 188 235 222 233 206 204 197 171 181 168 152 110 260 322 324 314 224 221 255 248 218 271 275 296 305 306 298 293 307 303 307